This is the latest recevied weather packets stored in our database for station/object K0SDS. If no packets are shown the sender has not sent any weather packets the latest 10 day(s).
| Time | Temp. | Humidity | Pressure | Rain* | Wind** | Luminosity | Snow |
|---|---|---|---|---|---|---|---|
| 1777394602 | 11.67° C | 75% | 1016.3 hPa | 0 mm | - | 261 W/m² | - |
| 1777394300 | 12.22° C | 75% | 1016.3 hPa | 0 mm | - | 310 W/m² | - |
| 1777393996 | 12.22° C | 74% | 1016.2 hPa | 0 mm | - | 333 W/m² | - |
| 1777393695 | 11.67° C | 78% | 1016.4 hPa | 0 mm | - | 701 W/m² | - |
| 1777393391 | 11.11° C | 77% | 1016.8 hPa | 0 mm | - | 342 W/m² | - |
| 1777393087 | 11.11° C | 77% | 1017 hPa | 0 mm | - | 316 W/m² | - |
| 1777392783 | 11.11° C | 76% | 1017.2 hPa | 0 mm | - | 266 W/m² | - |
| 1777392479 | 11.67° C | 77% | 1017.2 hPa | 0 mm | - | 307 W/m² | - |
| 1777392175 | 11.11° C | 76% | 1017 hPa | 0 mm | - | 342 W/m² | - |
| 1777391870 | 10.56° C | 78% | 1017.1 hPa | 0 mm | - | 273 W/m² | - |
| 1777391565 | 10.56° C | 78% | 1017.1 hPa | 0 mm | - | 235 W/m² | - |
| 1777391262 | 11.11° C | 78% | 1017.3 hPa | 0 mm | - | 215 W/m² | - |
| 1777390953 | 10.56° C | 77% | 1017.1 hPa | 0 mm | - | 259 W/m² | - |
| 1777390649 | 10.56° C | 79% | 1017.3 hPa | 0 mm | - | 211 W/m² | - |
| 1777390346 | 10.56° C | 78% | 1017.6 hPa | 0 mm | - | 206 W/m² | - |
| 1777390042 | 10.56° C | 80% | 1017.1 hPa | 0 mm | - | 290 W/m² | - |
| 1777389739 | 10° C | 80% | 1016.9 hPa | 0 mm | - | 219 W/m² | - |
| 1777389435 | 10° C | 80% | 1016.9 hPa | 0 mm | - | 207 W/m² | - |
| 1777389133 | 10° C | 80% | 1017.2 hPa | 0 mm | - | 214 W/m² | - |
| 1777388830 | 10° C | 80% | 1017.4 hPa | 0 mm | - | 177 W/m² | - |
| 1777388527 | 10° C | 80% | 1017.3 hPa | 0 mm | - | 165 W/m² | - |
| 1777388223 | 10° C | 82% | 1017.5 hPa | 0 mm | - | 176 W/m² | - |
| 1777387917 | 10° C | 81% | 1017.2 hPa | 0 mm | - | 166 W/m² | - |
| 1777387615 | 10° C | 80% | 1017.3 hPa | 0 mm | - | 128 W/m² | - |
| 1777387311 | 10° C | 82% | 1017.7 hPa | 0 mm | - | 118 W/m² | - |
* Rain latest hour (hover to see other rain measurements)
** Current wind speed in m/s (hover to see current wind gust speed)